Location: Sunny Point
(33.0946°N, 85.0574°W)
Time: 02:37:51
(UTC+00:00)

AO-73 - Pass Details

Date: 26 July 2024
Orbit: 530 x 587 km, 97.8° (Epoch: 08 July)

Event Time Altitude Azimuth Distance (km) Brightness Sun altitude
Rises 09:15:26 0° 357° (N) 2,804 ? -17.8°
Reaches altitude 10° 09:17:49 10° 345° (NNW) 1,914 ? -17.4°
Maximum altitude 09:21:17 26° 288° (WNW) 1,181 ? -16.8°
Enters shadow 09:21:59 25° 271° (W) 1,222 ? -16.7°
